TimeCDT,TemperatureF,Dew PointF,Humidity,Sea Level PressureIn,VisibilityMPH,Wind Direction,Wind SpeedMPH,Gust SpeedMPH,PrecipitationIn,Events,Conditions,WindDirDegrees,DateUTC
12:55 AM,55.0,46.9,74,30.14,10.0,SSE,6.9,-,N/A,,Clear,150,2011-10-10 05:55:00
1:55 AM,53.6,46.4,77,30.14,10.0,SE,6.9,-,N/A,,Clear,140,2011-10-10 06:55:00
2:55 AM,52.0,46.0,80,30.13,10.0,SE,3.5,-,N/A,,Clear,140,2011-10-10 07:55:00
3:55 AM,53.1,45.0,74,30.12,10.0,ESE,4.6,-,N/A,,Clear,120,2011-10-10 08:55:00
4:55 AM,48.9,45.0,86,30.12,10.0,Calm,Calm,-,N/A,,Clear,0,2011-10-10 09:55:00
5:55 AM,52.0,46.0,80,30.12,10.0,ESE,3.5,-,N/A,,Clear,120,2011-10-10 10:55:00
6:55 AM,52.0,46.9,83,30.12,10.0,SE,3.5,-,N/A,,Clear,140,2011-10-10 11:55:00
7:55 AM,53.6,48.2,82,30.12,10.0,SE,4.6,-,N/A,,Clear,140,2011-10-10 12:55:00
8:55 AM,60.1,48.0,64,30.13,10.0,SE,9.2,-,N/A,,Clear,140,2011-10-10 13:55:00
9:55 AM,66.9,51.1,57,30.12,10.0,South,9.2,-,N/A,,Clear,180,2011-10-10 14:55:00
10:55 AM,69.8,53.6,56,30.11,10.0,SSW,6.9,-,N/A,,Mostly Cloudy,200,2011-10-10 15:55:00
11:55 AM,69.8,53.6,56,30.10,10.0,South,6.9,-,N/A,,Scattered Clouds,180,2011-10-10 16:55:00
12:55 PM,73.0,54.0,51,30.08,10.0,SE,5.8,-,N/A,,Clear,140,2011-10-10 17:55:00
1:55 PM,75.0,54.0,48,30.05,10.0,SSE,10.4,-,N/A,,Partly Cloudy,160,2011-10-10 18:55:00
2:55 PM,73.4,53.6,50,30.03,10.0,SSW,10.4,-,N/A,,Overcast,210,2011-10-10 19:55:00
3:55 PM,73.9,54.0,50,30.03,10.0,SSW,8.1,-,N/A,,Partly Cloudy,200,2011-10-10 20:55:00
4:55 PM,73.4,53.6,50,30.01,10.0,South,5.8,-,N/A,,Partly Cloudy,180,2011-10-10 21:55:00
5:55 PM,71.1,54.0,55,30.01,10.0,SW,4.6,-,N/A,,Overcast,220,2011-10-10 22:55:00
6:55 PM,68.0,53.6,60,30.01,10.0,Calm,Calm,-,N/A,,Overcast,0,2011-10-10 23:55:00
7:55 PM,66.0,55.0,68,30.01,10.0,West,3.5,-,N/A,,Overcast,270,2011-10-11 00:55:00
8:55 PM,63.0,55.9,78,30.01,10.0,Calm,Calm,-,N/A,,Mostly Cloudy,0,2011-10-11 01:55:00
9:55 PM,63.0,55.9,78,30.01,10.0,ESE,3.5,-,N/A,,Overcast,110,2011-10-11 02:55:00
10:55 PM,61.0,55.9,83,30.01,10.0,Calm,Calm,-,N/A,,Overcast,0,2011-10-11 03:55:00
11:55 PM,60.1,55.0,83,30.01,10.0,Calm,Calm,-,N/A,,Mostly Cloudy,0,2011-10-11 04:55:00